Desroches Airport

Jump to: basic info | weather | runways | comments

Related pages: nearby airports | nearby navaids | notams | map

Basic information (top)

Codes: DES FSDR
Location: lon -5.696700, lat 53.655800, elev 10 ft / 3 m msl
Status: small_airport
Scheduled airline service: no
Links: Wikipedia Mobile

Weather (top)

Current conditions for Seychelles International Airport 127nm (236km) ENE (rec'd 2014/08/27 16:00Z):

FSIA 271600Z 17006KT 9999 SCT018 BKN080 27/24 Q1011 NOSIG

Airport forecast for Seychelles International Airport 127nm (236km) ENE (rec'd 2014/08/27 12:15Z):

TAF FSIA 270859Z 2712/2812 14010KT 9999 SCT018 
      TEMPO 2712/2718 -SHRA BKN016 
      BECMG 2715/2717 FEW017

Runways (top)

12/30: 4,531 x 33 ft (1,381 x 10 m) — paved — not lighted

Latest comments (top)

No comments yet for Desroches Airport

More... (top)

See also NOTAMs and nearby airports and navaids, or visit the Desroches Airport page at the main OurAirports website..